Погода в Красноармейском

Россия / Саратовская область     51°12′43″N   44°24′02″E
темп.,
°C
ветер,
м/с
пор.,
м/с
влажн.,
%
обл.,
%
осадки,
мм/ч
давл.,
гПа
погр.,
м
24 сентября, пт
пт2401:00+9ю1293100 0.0 1012155
04:00+7зюз229653 0.0 101313
07:00+6ссз1194100 0.0 101310
10:00+10ссз1170100 0.0 1012326
13:00+13ююв2255100 0.0 1012957
16:00+13ю2256100 0.0 1011966
19:00+10ю1167100 0.0 101110
22:00+8вюв227484 0.0 101018
25 сентября, сб
сб2501:00+9ю237295 0.0 101065
04:00+9ю237393 0.0 100977
07:00+8юв2275100 0.0 101038
10:00+11ююв3569100 0.0 1010306
13:00+14ю4451100 0.0 10101142
16:00+15ююз444829 0.0 10101192
19:00+13зюз2358100 0.0 101168
22:00+12зсз2362100 0.0 101265
26 сентября, вс
вс2601:00+11з3468100 0.0 1011140
04:00+11з2580100 0.1 1011202
07:00+10зюз3678100 0.0 1011244
10:00+13юз45636 0.0 1010610
13:00+14юз7859100 0.6 10081325
16:00+10ю5784100 3.4 1007529
19:00+10юз4794100 1.4 1005473
22:00+10зюз4789100 2.5 1004357
27 сентября, пн
пн2701:00+9зсз589182 0.6 1004463
04:00+9зсз4794100 1.1 1005342
07:00+9св6994100 0.4 1007550
10:00+11ссв4983100 0.7 1009515
13:00+15ссв685977 0.9 10121454
16:00+14с686094 1.6 10131218
19:00+11с61173100 0.2 1016414
22:00+9с5987100 0.2 1018344
28 сентября, вт
вт2801:00+9ссв4887100 0.2 1019422
04:00+9всв4684100 0.2 1021465
07:00+8всв478099 0.0 1023627
10:00+9всв57615 0.0 1025845
13:00+12всв56489 0.0 10261421
16:00+13св44415 0.0 10261570
19:00+10св335299 0.0 102747
22:00+8св35625 0.0 102977